Flag for U.S.A. Weather past 2 weeks in Sidney, Montana, U.S.A.

Now
34 °F

Clear.


Feels Like: 34 °F
Forecast: 34 / 61 °F
Wind: No wind

Location: Sidney-Richland

Current Time: Mar 27, 2015 at 7:28:17 AM

Latest Report: Mar 27, 2015 at 6:55 AM


Visibility: 10 mi

Pressure: 29.94 "Hg

Humidity: 87%

Dew point: 30 °F

Location of SidneyLocation

Historic Weather in Sidney — Graph

°F

Sidney temperature yesterday

Maximum temperature yesterday: 45 °F (at 3:35 PM)
Minimum temperature yesterday: 28 °F (at 12:15 AM)
Average temperature yesterday: 36 °F

Past Weeks' High & Low Weather Summary

 TemperatureHumidityPressure
High70 °F (Mar 14, 4:55 PM)100% (Mar 23, 4:15 AM)30.58 "Hg (Mar 23, 4:15 AM)
Low16 °F (Mar 17, 5:35 AM)18% (Mar 13, 4:55 PM)29.65 "Hg (Mar 14, 9:15 PM)
Average41 °F63%30.06 "Hg
* Reported Mar 12 6:15 AM — Mar 27 6:35 AM, Sidney, Weather by CustomWeather, © 2015

Note: Actual official high and low records may vary slightly from our data, if they occured in-between our weather recording intervals... More about our weather records

Advertising

Sidney weather history for previous 24 hours

 ConditionsComfort  
Time TempWeatherWind HumidityBarometerVisibility
6:35 AM
Fri, Mar 27
34 °FClear.No wind87%29.94 "Hg10 mi
6:15 AM34 °FClear.No wind87%29.94 "Hg10 mi
5:55 AM36 °FClear.3 mph87%29.94 "Hg10 mi
5:35 AM36 °FClear.No wind81%29.95 "Hg10 mi
5:15 AM36 °FClear.5 mph87%29.95 "Hg10 mi
4:55 AM37 °FPassing clouds.8 mph81%29.95 "Hg10 mi
4:35 AM36 °FPassing clouds.8 mph81%29.97 "Hg10 mi
4:15 AM36 °FClear.6 mph81%29.98 "Hg10 mi
3:55 AM36 °FPassing clouds.7 mph81%29.99 "Hg10 mi
3:35 AM36 °FPassing clouds.5 mph81%30.01 "Hg10 mi
3:15 AM36 °FPassing clouds.6 mph81%30.01 "Hg10 mi
2:55 AM37 °FPassing clouds.8 mph75%30.01 "Hg10 mi
2:35 AM37 °FPassing clouds.6 mph75%30.03 "Hg10 mi
2:15 AM37 °FPassing clouds.6 mph75%30.04 "Hg10 mi
1:55 AM37 °FPassing clouds.7 mph75%30.04 "Hg10 mi
1:35 AM37 °FPassing clouds.7 mph75%30.05 "Hg10 mi
1:15 AM37 °FPassing clouds.7 mph75%30.07 "Hg10 mi
12:55 AM37 °FOvercast.8 mph75%30.08 "Hg10 mi
12:35 AM37 °FOvercast.9 mph75%30.08 "Hg10 mi
12:15 AM37 °FOvercast.8 mph75%30.09 "Hg10 mi
11:55 PM
Thu, Mar 26
37 °FPassing clouds.7 mph75%30.10 "Hg10 mi
11:35 PM37 °FPassing clouds.10 mph75%30.10 "Hg10 mi
11:15 PM37 °FPassing clouds.9 mph75%30.10 "Hg10 mi
10:55 PM37 °FPassing clouds.7 mph75%30.12 "Hg10 mi
10:35 PM37 °FClear.6 mph75%30.12 "Hg10 mi
9:55 PM37 °FClear.7 mph75%30.13 "Hg10 mi
9:15 PM39 °FClear.7 mph70%30.13 "Hg10 mi
8:55 PM39 °FClear.6 mph70%30.13 "Hg10 mi
8:35 PM39 °FClear.7 mph70%30.13 "Hg10 mi
8:15 PM39 °FSunny.7 mph70%30.14 "Hg10 mi
7:55 PM39 °FSunny.7 mph75%30.14 "Hg10 mi
7:35 PM39 °FPassing clouds.6 mph75%30.14 "Hg10 mi
7:15 PM39 °FScattered clouds.7 mph75%30.14 "Hg10 mi
6:55 PM41 °FSunny.7 mph70%30.14 "Hg10 mi
6:35 PM43 °FSunny.8 mph66%30.14 "Hg10 mi
6:15 PM43 °FSunny.9 mph71%30.15 "Hg10 mi
5:55 PM45 °FSunny.9 mph66%30.15 "Hg10 mi
5:35 PM45 °FSunny.8 mph66%30.15 "Hg10 mi
5:15 PM45 °FSunny.7 mph66%30.15 "Hg10 mi
4:55 PM45 °FSunny.6 mph66%30.16 "Hg10 mi
4:35 PM45 °FSunny.5 mph61%30.15 "Hg10 mi
4:15 PM45 °FSunny.5 mph66%30.15 "Hg10 mi
3:55 PM45 °FSunny.7 mph61%30.16 "Hg10 mi
3:35 PM45 °FSunny.7 mph61%30.16 "Hg10 mi
3:15 PM43 °FScattered clouds.7 mph66%30.17 "Hg10 mi
2:55 PM43 °FPassing clouds.3 mph66%30.17 "Hg10 mi
2:35 PM41 °FSunny.5 mph76%30.17 "Hg10 mi
2:15 PM41 °FScattered clouds.3 mph66%30.17 "Hg10 mi
1:55 PM43 °FPartly sunny.3 mph66%30.19 "Hg10 mi
1:35 PM39 °FBroken clouds.3 mph70%30.19 "Hg10 mi
1:15 PM39 °FScattered clouds.No wind70%30.20 "Hg10 mi
12:55 PM39 °FSunny.No wind70%30.19 "Hg10 mi
12:35 PM39 °FScattered clouds.No wind70%30.19 "Hg10 mi
12:15 PM36 °FOvercast.No wind75%30.19 "Hg10 mi
11:55 AM36 °FMostly cloudy.No wind75%30.19 "Hg10 mi
11:35 AM36 °FPartly sunny.No wind75%30.19 "Hg10 mi
11:15 AM36 °FMostly cloudy.No wind75%30.20 "Hg10 mi
10:55 AM37 °FLow clouds.No wind70%30.19 "Hg10 mi
10:35 AM36 °FLow clouds.No wind75%30.19 "Hg10 mi
10:15 AM36 °FLow clouds.3 mph75%30.19 "Hg10 mi
9:55 AM36 °FLow clouds.No wind75%30.18 "Hg10 mi
9:35 AM34 °FLow clouds.No wind81%30.18 "Hg10 mi
9:15 AM32 °FLow clouds.3 mph87%30.18 "Hg10 mi
8:55 AM34 °FLow clouds.6 mph81%30.17 "Hg10 mi
8:35 AM32 °FLow clouds.5 mph87%30.16 "Hg10 mi
8:15 AM32 °FMostly cloudy.7 mph87%30.15 "Hg10 mi
7:55 AM32 °FLow clouds.7 mph87%30.15 "Hg10 mi
7:35 AM30 °FMostly cloudy.7 mph93%30.15 "Hg7 mi
7:15 AM34 °FLow clouds.No wind87%30.14 "Hg5 mi
Weather by CustomWeather, © 2015

See weather overviewHow to use our weather pages